Lake Arrowhead Weather Center

Moon Phase Calendar



Lake Arrowhead Water Level
Online Cameras

 


      

Current Conditions in Lake Arrowhead
8/8/2022 3:11:18 AM

67°F
Feels Like 65
Clear
Humidity
43%
Pressure
29.91"
Wind
0
Dew Point
44°F
UV Index
0/10 (Low)
Visibility
6 mi

Hourly Forecast

Date & Time Mon, Aug 8
3:00 AM
Mon, Aug 8
4:00 AM
Mon, Aug 8
5:00 AM
Mon, Aug 8
6:00 AM
Mon, Aug 8
7:00 AM
Mon, Aug 8
8:00 AM
Mon, Aug 8
9:00 AM
Mon, Aug 8
10:00 AM
Mon, Aug 8
11:00 AM
Mon, Aug 8
12:00 PM
Mon, Aug 8
1:00 PM
Mon, Aug 8
2:00 PM
Mon, Aug 8
3:00 PM
Mon, Aug 8
4:00 PM
Mon, Aug 8
5:00 PM
Mon, Aug 8
6:00 PM
Mon, Aug 8
7:00 PM
Mon, Aug 8
8:00 PM
Mon, Aug 8
9:00 PM
Mon, Aug 8
10:00 PM
Mon, Aug 8
11:00 PM
Tue, Aug 9
12:00 AM
Tue, Aug 9
1:00 AM
Tue, Aug 9
2:00 AM
Tue, Aug 9
3:00 AM
Tue, Aug 9
4:00 AM
Tue, Aug 9
5:00 AM
Tue, Aug 9
6:00 AM
Tue, Aug 9
7:00 AM
Tue, Aug 9
8:00 AM
Tue, Aug 9
9:00 AM
Tue, Aug 9
10:00 AM
Tue, Aug 9
11:00 AM
Tue, Aug 9
12:00 PM
Tue, Aug 9
1:00 PM
Tue, Aug 9
2:00 PM
Tue, Aug 9
3:00 PM
Tue, Aug 9
4:00 PM
Tue, Aug 9
5:00 PM
Tue, Aug 9
6:00 PM
Tue, Aug 9
7:00 PM
Tue, Aug 9
8:00 PM
Tue, Aug 9
9:00 PM
Tue, Aug 9
10:00 PM
Tue, Aug 9
11:00 PM
Wed, Aug 10
12:00 AM
Wed, Aug 10
1:00 AM
Wed, Aug 10
2:00 AM
Condition
Clear

Clear

Clouds

Clear

Clear

Clear

Clear

Clear

Clouds

Clouds

Clouds

Clouds

Clouds

Clouds

Clouds

Clouds

Clouds

Clouds

Clouds

Clouds

Clouds

Clouds

Clouds

Clouds

Clouds

Clouds

Clouds

Clear

Clear

Clouds

Clouds

Clouds

Clouds

Clouds

Clouds

Clouds

Clouds

Clouds

Clouds

Clouds

Clouds

Clouds

Clouds

Clouds

Clouds

Clear

Clouds

Clouds
Temperature 67°F67°F67°F67°F70°F76°F79°F81°F83°F84°F85°F85°F84°F82°F80°F78°F75°F72°F72°F71°F71°F71°F70°F67°F66°F66°F66°F65°F68°F73°F76°F78°F80°F82°F83°F83°F83°F83°F81°F79°F75°F70°F69°F67°F67°F66°F65°F65°F
Feels Like 65°F66°F66°F65°F68°F74°F79°F80°F81°F81°F82°F82°F81°F80°F79°F77°F74°F71°F70°F70°F69°F69°F69°F66°F64°F64°F64°F64°F66°F71°F75°F77°F79°F80°F81°F81°F81°F81°F80°F79°F74°F69°F67°F66°F65°F64°F63°F63°F
Cloudiness 0%8%15%5%6%8%9%9%18%100%100%100%100%100%100%100%100%100%99%99%99%100%92%68%52%43%36%1%9%26%36%49%56%87%93%96%97%97%98%84%72%53%50%40%34%6%17%30%
Visibility 6 mi6 mi6 mi6 mi6 mi6 mi6 mi6 mi6 mi6 mi6 mi6 mi6 mi6 mi6 mi6 mi6 mi6 mi6 mi6 mi6 mi6 mi6 mi6 mi6 mi6 mi6 mi6 mi6 mi6 mi6 mi6 mi6 mi6 mi6 mi6 mi6 mi6 mi6 mi6 mi6 mi6 mi6 mi6 mi6 mi6 mi6 mi6 mi
Precipitation 0%0%0%4%4%0%0%0%0%0%0%8%12%12%12%11%12%16%16%16%16%6%0%1%1%1%3%2%1%0%0%0%0%0%0%4%0%0%0%0%0%0%1%1%1%0%0%0%
Humidity 43%40%39%37%34%25%24%24%23%23%22%23%24%26%29%31%33%35%33%33%34%36%36%40%42%44%45%46%44%37%33%31%29%28%27%27%26%25%26%28%31%35%35%36%37%38%39%41%
Dew Point 44°F42°F42°F40°F40°F39°F41°F42°F43°F44°F44°F44°F45°F46°F47°F47°F46°F44°F43°F42°F43°F44°F44°F44°F45°F45°F45°F46°F47°F47°F47°F47°F47°F47°F47°F47°F47°F46°F45°F45°F44°F43°F42°F41°F41°F41°F42°F42°F
Pressure 29.91"29.91"29.94"29.94"29.97"29.97"29.97"29.97"29.94"29.94"29.94"29.91"29.91"29.91"29.91"29.88"29.91"29.94"29.97"29.97"29.97"29.97"29.94"29.94"29.94"29.94"29.94"29.94"29.97"29.94"29.94"29.94"29.94"29.94"29.94"29.91"29.91"29.88"29.88"29.88"29.91"29.94"29.97"30"30"30"30"30"
Wind Speed 3.4 mph2.8 mph3 mph3.3 mph3.6 mph3.4 mph4.9 mph5.9 mph6.6 mph8.2 mph8.7 mph9.4 mph10.3 mph10.9 mph9.5 mph7.9 mph6.9 mph6.6 mph5.5 mph5 mph3.6 mph2.1 mph2.2 mph2.6 mph2.8 mph2.6 mph3 mph2.8 mph2.8 mph3 mph4.8 mph5.8 mph7.2 mph8.4 mph9 mph9.2 mph9.5 mph10.2 mph10.6 mph10.2 mph7.8 mph6 mph6 mph6 mph5.1 mph5.3 mph4.4 mph4.2 mph
Wind
Direction
126°
SE
118°
ESE
117°
ESE
122°
ESE
118°
ESE
178°
S
199°
SSW
206°
SSW
209°
SSW
208°
SSW
212°
SSW
210°
SSW
205°
SSW
205°
SSW
198°
SSW
194°
SSW
187°
S
183°
S
173°
S
169°
S
163°
SSE
169°
S
180°
S
167°
SSE
150°
SSE
151°
SSE
140°
SE
148°
SSE
131°
SE
190°
S
203°
SSW
205°
SSW
210°
SSW
209°
SSW
208°
SSW
206°
SSW
207°
SSW
209°
SSW
207°
SSW
199°
SSW
196°
SSW
171°
S
166°
SSE
161°
SSE
165°
SSE
163°
SSE
158°
SSE
150°
SSE

Daily Forecast

Date High Low Precip. Humidity
Today
Aug 8

Clouds
85 °F
67 °F
16%
23%
Tuesday
Aug 9

Clouds
83 °F
65 °F
6%
28%
Wednesday
Aug 10

Clouds
84 °F
65 °F
4%
27%
Thursday
Aug 11

Rain
86 °F
66 °F
20%
24%
Friday
Aug 12

Rain
87 °F
69 °F
36%
23%
Saturday
Aug 13

Rain
85 °F
68 °F
55%
27%
Sunday
Aug 14

Rain
80 °F
67 °F
75%
37%
Monday
Aug 15

Rain
81 °F
66 °F
73%
37%
Tuesday
Aug 16

Rain
82 °F
65 °F
86%
42%
Wednesday
Aug 17

Rain
80 °F
65 °F
100%
42%
Thursday
Aug 18

Rain
84 °F
65 °F
49%
45%
Friday
Aug 19

Rain
85 °F
68 °F
24%
41%
Saturday
Aug 20

Clear
84 °F
66 °F
0%
42%
Sunday
Aug 21

Rain
86 °F
67 °F
28%
36%
Monday
Aug 22

Rain
83 °F
67 °F
61%
40%
Tuesday
Aug 23

Rain
79 °F
66 °F
49%
48%

Temperature 8-14 Day Outlook



Precipitation 8-14 Day Outlook




Quick Links
Lake Arrowhead News
Lake Arrowhead Photos
Lake Arrowhead Videos




About Us
Contact Us
Site Map
Search Site
Advertise With Us
   
Arrowhead-CA.LakesOnline.com
THE LAKE ARROWHEAD WEBSITE

Copyright 2022, Lakes Online
Privacy    |    Legal